| time (UTC) | temp C | wind direction | speed KPH | gust KPH | rain 1hr cm | rain 24hr cm | rain mn cm | humidity % | barometer mb |
| 20260502194550 | 6 | 291 | 3.2 | 12.9 | 0.00 | 0.10 | 0.00 | 67 | 1016.4 |
| 20260502193057 | 8 | 300 | 0.0 | 6.4 | 0.00 | 0.10 | 0.00 | 59 | 1016.4 |
| 20260502191549 | 8 | 297 | 0.0 | 12.9 | 0.00 | 0.10 | 0.00 | 58 | 1016.3 |
| 20260502190042 | 9 | 333 | 4.8 | 9.7 | 0.00 | 0.10 | 0.00 | 55 | 1016.4 |
| 20260502184543 | 8 | 319 | 0.0 | 9.7 | 0.00 | 0.10 | 0.00 | 62 | 1016.5 |
| 20260502183040 | 8 | 277 | 3.2 | 16.1 | 0.00 | 0.10 | 0.00 | 58 | 1016.6 |
| 20260502181547 | 8 | 135 | 1.6 | 16.1 | 0.00 | 0.10 | 0.00 | 60 | 1016.6 |
| 20260502163041 | 8 | 260 | 3.2 | 9.7 | 0.00 | 0.23 | 0.00 | 60 | 1016.7 |
| 20260502161554 | 8 | 281 | 3.2 | 11.3 | 0.00 | 0.23 | 0.00 | 57 | 1016.7 |
| 20260502151529 | 8 | 264 | 1.6 | 9.7 | 0.00 | 0.23 | 0.00 | 53 | 1016.5 |
| 20260502123126 | 3 | 248 | 0.0 | 3.2 | 0.00 | 0.25 | 0.00 | 91 | 1016.4 |
| 20260502121604 | 2 | 243 | 0.0 | 0.0 | 0.00 | 0.25 | 0.00 | 92 | 1016.4 |
| 20260502120131 | 2 | 245 | 0.0 | 4.8 | 0.00 | 0.25 | 0.00 | 93 | 1016.6 |
| 20260502114558 | 2 | 252 | 0.0 | 1.6 | 0.00 | 0.25 | 0.00 | 93 | 1016.5 |
| 20260502113056 | 2 | 309 | 0.0 | 0.0 | 0.00 | 0.25 | 0.00 | 94 | 1016.6 |
| 20260502111556 | 0 | 309 | 0.0 | 0.0 | 0.00 | 0.25 | 0.00 | 94 | 1016.4 |
| 20260502110055 | 0 | 309 | 0.0 | 0.0 | 0.00 | 0.25 | 0.00 | 94 | 1016.4 |
| 20260502104556 | 0 | 309 | 0.0 | 0.0 | 0.00 | 0.25 | 0.00 | 94 | 1016.3 |
| 20260502103054 | 0 | 309 | 0.0 | 0.0 | 0.00 | 0.25 | 0.00 | 94 | 1016.3 |
| 20260502101559 | 0 | 309 | 0.0 | 0.0 | 0.00 | 0.25 | 0.00 | 94 | 1016.1 |
| 20260502071533 | 2 | 309 | 0.0 | 0.0 | 0.00 | 0.25 | 0.00 | 93 | 1015.8 |
| 20260502070032 | 3 | 309 | 0.0 | 0.0 | 0.00 | 0.25 | 0.00 | 93 | 1016.0 |
| 20260502064535 | 2 | 309 | 0.0 | 0.0 | 0.00 | 0.25 | 0.00 | 93 | 1016.2 |
| 20260502063034 | 2 | 309 | 0.0 | 0.0 | 0.00 | 0.25 | 0.00 | 93 | 1016.3 |
| 20260502061528 | 2 | 309 | 0.0 | 0.0 | 0.00 | 0.25 | 0.00 | 93 | 1016.4 |
| 20260502060027 | 2 | 309 | 0.0 | 0.0 | 0.00 | 0.00 | 0.00 | 93 | 1016.4 |
| 20260502054525 | 2 | 309 | 0.0 | 0.0 | 0.00 | 0.25 | 0.00 | 93 | 1016.5 |
| 20260502053023 | 2 | 309 | 0.0 | 0.0 | 0.00 | 0.25 | 0.00 | 93 | 1016.5 |
| 20260502051523 | 2 | 309 | 0.0 | 0.0 | 0.00 | 0.25 | 0.00 | 92 | 1016.5 |
| 20260502050032 | 2 | 309 | 0.0 | 0.0 | 0.00 | 0.25 | 0.00 | 92 | 1016.7 |
| 20260502044515 | 3 | 309 | 0.0 | 0.0 | 0.00 | 0.25 | 0.00 | 91 | 1016.7 |
| 20260502043010 | 3 | 309 | 0.0 | 0.0 | 0.00 | 0.25 | 0.00 | 91 | 1016.7 |
| 20260502041508 | 4 | 309 | 0.0 | 0.0 | 0.00 | 0.25 | 0.00 | 92 | 1016.8 |
| 20260502040005 | 4 | 309 | 0.0 | 0.0 | 0.00 | 0.25 | 0.00 | 91 | 1016.8 |
| 20260502034510 | 4 | 309 | 0.0 | 0.0 | 0.00 | 0.25 | 0.25 | 91 | 1016.9 |
| 20260502033006 | 4 | 309 | 0.0 | 0.0 | 0.00 | 0.25 | 0.25 | 91 | 1016.8 |
| 20260502031503 | 4 | 309 | 0.0 | 0.0 | 0.00 | 0.25 | 0.25 | 91 | 1016.7 |
| 20260502030005 | 4 | 309 | 0.0 | 0.0 | 0.00 | 0.25 | 0.25 | 91 | 1016.7 |
| 20260502024501 | 4 | 309 | 0.0 | 0.0 | 0.00 | 0.25 | 0.25 | 91 | 1016.5 |
| 20260502023059 | 4 | 309 | 0.0 | 0.0 | 0.00 | 0.25 | 0.25 | 91 | 1016.5 |
| 20260502021605 | 4 | 309 | 0.0 | 0.0 | 0.00 | 0.25 | 0.25 | 90 | 1016.3 |
| 20260502020058 | 4 | 309 | 0.0 | 0.0 | 0.00 | 0.00 | 0.25 | 90 | 1016.4 |
| 20260502014557 | 4 | 309 | 0.0 | 0.0 | 0.00 | 0.25 | 0.25 | 90 | 1016.3 |
| 20260502013053 | 4 | 309 | 0.0 | 0.0 | 0.00 | 0.25 | 0.25 | 89 | 1015.9 |
| 20260502011552 | 4 | 309 | 0.0 | 0.0 | 0.00 | 0.25 | 0.25 | 88 | 1015.5 |
| 20260502010058 | 5 | 309 | 0.0 | 0.0 | 0.00 | 0.25 | 0.25 | 87 | 1015.3 |
| 20260502004600 | 5 | 309 | 0.0 | 3.2 | 0.00 | 0.25 | 0.25 | 87 | 1015.4 |
| 20260502003050 | 5 | 278 | 0.0 | 0.0 | 0.00 | 0.25 | 0.25 | 85 | 1015.5 |
| 20260502001547 | 6 | 316 | 0.0 | 3.2 | 0.00 | 0.25 | 0.25 | 83 | 1015.2 |
| 20260502000045 | 6 | 285 | 0.0 | 12.9 | 0.00 | 0.25 | 0.25 | 82 | 1014.9 |
| 20260501234544 | 6 | 287 | 0.0 | 3.2 | 0.00 | 0.25 | 0.25 | 83 | 1014.5 |
| 20260501233048 | 7 | 259 | 0.0 | 4.8 | 0.00 | 0.25 | 0.25 | 83 | 1014.2 |
| 20260501231544 | 7 | 281 | 0.0 | 6.4 | 0.00 | 0.25 | 0.25 | 83 | 1014.3 |
| 20260501230046 | 7 | 321 | 0.0 | 12.9 | 0.00 | 0.25 | 0.25 | 87 | 1014.2 |
| 20260501224548 | 6 | 304 | 3.2 | 8.0 | 0.00 | 0.25 | 0.25 | 89 | 1014.1 |
| 20260501223042 | 6 | 264 | 1.6 | 8.0 | 0.00 | 0.25 | 0.25 | 93 | 1013.9 |
| 20260501221543 | 6 | 302 | 0.0 | 12.9 | 0.00 | 0.25 | 0.25 | 93 | 1014.0 |
| 20260501220048 | 6 | 300 | 1.6 | 17.7 | 0.00 | 0.25 | 0.25 | 93 | 1014.0 |
| 20260501214541 | 6 | 276 | 3.2 | 14.5 | 0.00 | 0.25 | 0.25 | 92 | 1013.4 |
| 20260501213048 | 7 | 257 | 0.0 | 17.7 | 0.00 | 0.25 | 0.25 | 92 | 1013.1 |
| 20260501211539 | 7 | 285 | 3.2 | 8.0 | 0.00 | 0.25 | 0.25 | 92 | 1012.6 |
| 20260501210043 | 8 | 308 | 0.0 | 11.3 | 0.00 | 0.25 | 0.25 | 93 | 1012.2 |
| 20260501204538 | 8 | 273 | 4.8 | 14.5 | 0.10 | 0.25 | 0.25 | 92 | 1012.0 |
| 20260501203037 | 10 | 290 | 0.0 | 16.1 | 0.10 | 0.25 | 0.25 | 93 | 1011.8 |
| 20260501201535 | 10 | 225 | 0.0 | 3.2 | 0.10 | 0.25 | 0.25 | 93 | 1011.5 |
| 20260501200034 | 9 | 190 | 0.0 | 12.9 | 0.10 | 0.25 | 0.25 | 85 | 1011.7 |